Weather History for Oxford, NC

Change the Weather History Date:

Sunday, January 27, 2013

  Actual Average (KTDF) Record (KTDF)
Temperature  
Mean Temperature 30 °F -  
Max Temperature 39 °F 48 °F 76 °F (1974)
Min Temperature 21 °F 26 °F 8 °F (1982)
Degree Days  
Heating Degree Days 36    
Moisture  
Dew Point 24 °F    
Average Humidity 79    
Maximum Humidity 97    
Minimum Humidity 51    
Precipitation  
Precipitation 0.00 in - - ()
Sea Level Pressure  
Sea Level Pressure 30.51 in    
Wind  
Wind Speed 1 mph (SSE)    
Max Wind Speed 8 mph    
Max Gust Speed -    
Visibility 6 miles    
Events Fog    
Averages and records for this station are not official NWS values.
T = Trace of Precipitation, MM = Missing Value Source: NWS Daily Summary

Daily Weather History Graph

Daily Weather History Graph

Search for Another Location

Airport:

Trip Planner

Search our weather history database for the weather conditions in past years. The results will help you decide how hot, cold, wet, or windy it might be!

Date:

Astronomy

Jan. 27, 2013 Rise Set
Actual Time 7:18 AM EST 5:35 PM EST
Civil Twilight 6:51 AM EST 6:02 PM EST
Nautical Twilight 6:20 AM EST 6:33 PM EST
Astronomical Twilight 5:50 AM EST 7:04 PM EST
Moon 6:24 PM EST (1/27) 7:13 AM EST (1/27)
Length of Visible Light 11h 11m
Length of Day
10h 16m
Full, 100% of the Moon is Illuminated
Jan 27
Full
Feb 3
Last Quarter
Feb 10
New
Feb 17
First Quarter
Feb 25
Full

Hourly Weather History & Observations

Time (EST) Temp. Windchill Dew Point Humidity Pressure Visibility Wind Dir Wind Speed Gust Speed Precip Events Conditions
12:15 AM 24.3 °F - 23.4 °F 96% 30.40 in 4.0 mi Calm Calm - N/A   Clear
12:35 AM 22.5 °F - 21.4 °F 96% 30.40 in 4.0 mi Calm Calm - N/A   Clear
12:55 AM 21.4 °F - 20.3 °F 96% 30.41 in 5.0 mi Calm Calm - N/A   Scattered Clouds
1:15 AM 22.8 °F - 21.7 °F 96% 30.40 in 0.2 mi Calm Calm - N/A Fog Light Freezing Fog
1:35 AM 24.6 °F - 23.7 °F 96% 30.41 in 0.2 mi Calm Calm - N/A Fog Light Freezing Fog
1:55 AM 24.4 °F - 23.5 °F 96% 30.42 in 0.2 mi Calm Calm - N/A Fog Light Freezing Fog
2:15 AM 23.9 °F - 22.8 °F 96% 30.43 in 0.2 mi Calm Calm - N/A Fog Light Freezing Fog
2:35 AM 23.5 °F - 22.5 °F 96% 30.44 in 0.2 mi Calm Calm - N/A Fog Light Freezing Fog
2:55 AM 22.8 °F 16.7 °F 21.7 °F 96% 30.44 in 0.2 mi SSE 4.6 mph - N/A Fog Light Freezing Fog
3:15 AM 23.7 °F - 22.6 °F 96% 30.44 in 0.2 mi Calm Calm - N/A Fog Light Freezing Fog
3:35 AM 23.4 °F - 22.1 °F 95% 30.44 in 0.2 mi Calm Calm - N/A Fog Light Freezing Fog
3:55 AM 23.4 °F 18.9 °F 22.1 °F 95% 30.44 in 0.2 mi SSE 3.5 mph - N/A Fog Light Freezing Fog
4:15 AM 23.4 °F - 22.1 °F 95% 30.45 in 0.2 mi Calm Calm - N/A Fog Light Freezing Fog
4:35 AM 23.4 °F - 22.3 °F 96% 30.45 in 0.2 mi Calm Calm - N/A Fog Light Freezing Fog
4:55 AM 23.9 °F - 22.8 °F 96% 30.46 in 0.2 mi Calm Calm - N/A Fog Light Freezing Fog
5:15 AM 24.3 °F - 23.4 °F 96% 30.46 in 0.8 mi Calm Calm - N/A   Overcast
5:35 AM 24.4 °F - 23.4 °F 96% 30.46 in 0.2 mi Calm Calm - N/A Fog Light Freezing Fog
5:55 AM 24.3 °F - 23.2 °F 96% 30.47 in 0.2 mi Calm Calm - N/A Fog Light Freezing Fog
6:15 AM 23.9 °F - 22.8 °F 96% 30.47 in 0.2 mi Calm Calm - N/A Fog Light Freezing Fog
6:35 AM 23.5 °F - 22.5 °F 96% 30.48 in 0.2 mi Calm Calm - N/A Fog Light Freezing Fog
6:55 AM 23.5 °F - 22.5 °F 96% 30.50 in 0.2 mi Calm Calm - N/A Fog Light Freezing Fog
7:15 AM 23.5 °F - 22.5 °F 96% 30.51 in 0.5 mi Calm Calm - N/A Fog Light Freezing Fog
7:35 AM 23.5 °F - 22.5 °F 96% 30.52 in 0.2 mi Calm Calm - N/A Fog Light Freezing Fog
7:55 AM 23.7 °F - 22.6 °F 96% 30.53 in 0.2 mi Calm Calm - N/A Fog Light Freezing Fog
8:15 AM 23.9 °F - 23.0 °F 96% 30.54 in 0.8 mi Calm Calm - N/A   Overcast
8:35 AM 25.0 °F - 23.9 °F 96% 30.56 in 2.0 mi Calm Calm - N/A   Mostly Cloudy
8:55 AM 26.4 °F - 25.5 °F 96% 30.57 in 3.0 mi Calm Calm - N/A   Clear
9:15 AM 27.9 °F - 27.0 °F 96% 30.57 in 5.0 mi Calm Calm - N/A   Clear
9:35 AM 28.8 °F 25.0 °F 27.9 °F 96% 30.57 in 7.0 mi SSE 3.5 mph - N/A   Clear
9:55 AM 29.7 °F 23.7 °F 28.9 °F 97% 30.58 in 7.0 mi SSE 5.8 mph - N/A   Clear
10:15 AM 30.4 °F 25.6 °F 29.7 °F 97% 30.59 in 10.0 mi SSE 4.6 mph - N/A   Clear
10:35 AM 30.4 °F 22.9 °F 29.7 °F 97% 30.59 in 10.0 mi East 8.1 mph - N/A   Clear
10:55 AM 30.9 °F 25.2 °F 29.5 °F 94% 30.59 in 10.0 mi East 5.8 mph - N/A   Clear
11:15 AM 32.0 °F 25.6 °F 25.0 °F 75% 30.59 in 10.0 mi East 6.9 mph - N/A   Scattered Clouds
11:35 AM 34.2 °F 27.5 °F 23.2 °F 64% 30.58 in 10.0 mi ESE 8.1 mph - N/A   Clear
11:55 AM 35.2 °F 29.5 °F 22.6 °F 60% 30.58 in 10.0 mi ENE 6.9 mph - N/A   Clear
12:15 PM 36.0 °F 31.1 °F 22.6 °F 58% 30.57 in 10.0 mi East 5.8 mph - N/A   Clear
12:35 PM 36.3 °F 32.5 °F 22.5 °F 57% 30.56 in 10.0 mi ENE 4.6 mph - N/A   Clear
12:55 PM 37.4 °F 34.9 °F 22.6 °F 55% 30.54 in 10.0 mi NNW 3.5 mph - N/A   Clear
1:15 PM 37.9 °F 35.5 °F 22.5 °F 54% 30.54 in 10.0 mi NE 3.5 mph - N/A   Clear
1:35 PM 37.6 °F 35.1 °F 22.1 °F 54% 30.52 in 10.0 mi South 3.5 mph - N/A   Clear
1:55 PM 38.1 °F 35.7 °F 22.5 °F 53% 30.52 in 10.0 mi South 3.5 mph - N/A   Clear
2:15 PM 38.8 °F 36.5 °F 22.8 °F 53% 30.53 in 10.0 mi South 3.5 mph - N/A   Scattered Clouds
2:35 PM 38.1 °F - 22.3 °F 53% 30.52 in 10.0 mi Calm Calm - N/A   Scattered Clouds
2:55 PM 38.5 °F - 21.9 °F 51% 30.52 in 10.0 mi Calm Calm - N/A   Clear
3:15 PM 38.3 °F - 22.3 °F 53% 30.52 in 10.0 mi Calm Calm - N/A   Clear
3:35 PM 38.5 °F - 22.3 °F 52% 30.52 in 10.0 mi Calm Calm - N/A   Clear
3:55 PM 38.5 °F - 22.6 °F 53% 30.52 in 10.0 mi Calm Calm - N/A   Clear
4:15 PM 38.5 °F - 22.8 °F 53% 30.51 in 10.0 mi Calm Calm - N/A   Clear
4:35 PM 38.5 °F - 22.8 °F 53% 30.52 in 10.0 mi Calm Calm - N/A   Clear
4:55 PM 38.3 °F 35.9 °F 23.0 °F 54% 30.51 in 10.0 mi SE 3.5 mph - N/A   Clear
5:15 PM 37.6 °F - 23.2 °F 56% 30.52 in 10.0 mi Calm Calm - N/A   Clear
5:35 PM 37.4 °F - 23.0 °F 56% 30.53 in 10.0 mi Calm Calm - N/A   Clear
5:55 PM 36.7 °F - 23.7 °F 59% 30.53 in 10.0 mi Calm Calm - N/A   Clear
6:15 PM 35.8 °F 33.0 °F 24.1 °F 62% 30.54 in 10.0 mi SSE 3.5 mph - N/A   Clear
6:35 PM 35.2 °F 32.4 °F 24.8 °F 66% 30.53 in 10.0 mi SE 3.5 mph - N/A   Clear
6:55 PM 35.1 °F 32.2 °F 24.6 °F 66% 30.53 in 10.0 mi SSE 3.5 mph - N/A   Clear
7:15 PM 34.3 °F 31.4 °F 24.6 °F 68% 30.52 in 10.0 mi SSE 3.5 mph - N/A   Clear
7:35 PM 33.1 °F 30.0 °F 24.8 °F 72% 30.52 in 10.0 mi South 3.5 mph - N/A   Clear
7:55 PM 33.1 °F 28.7 °F 24.4 °F 71% 30.50 in 10.0 mi SSE 4.6 mph - N/A   Clear
8:15 PM 32.9 °F 29.8 °F 24.8 °F 72% 30.52 in 10.0 mi SSE 3.5 mph - N/A   Clear
8:35 PM 32.9 °F 29.8 °F 24.4 °F 71% 30.52 in 10.0 mi SSE 3.5 mph - N/A   Clear
8:55 PM 32.0 °F - 24.6 °F 74% 30.52 in 10.0 mi Calm Calm - N/A   Clear
9:15 PM 30.2 °F 25.4 °F 24.8 °F 80% 30.51 in 10.0 mi SSE 4.6 mph - N/A   Clear
9:35 PM 31.5 °F 26.8 °F 24.8 °F 76% 30.51 in 10.0 mi South 4.6 mph - N/A   Clear
9:55 PM 31.3 °F 27.9 °F 24.8 °F 77% 30.50 in 10.0 mi South 3.5 mph - N/A   Clear
10:15 PM 32.0 °F 26.4 °F 25.7 °F 78% 30.51 in 10.0 mi South 5.8 mph - N/A   Clear
10:35 PM 31.8 °F 27.3 °F 25.3 °F 77% 30.52 in 10.0 mi South 4.6 mph - N/A   Clear
10:55 PM 32.0 °F 26.4 °F 25.3 °F 76% 30.51 in 10.0 mi South 5.8 mph - N/A   Clear
11:15 PM 31.6 °F 27.0 °F 24.8 °F 76% 30.50 in 10.0 mi SSE 4.6 mph - N/A   Clear
11:35 PM 31.1 °F 27.7 °F 24.8 °F 77% 30.49 in 10.0 mi South 3.5 mph - N/A   Clear
11:55 PM 30.4 °F 25.6 °F 25.0 °F 80% 30.49 in 10.0 mi South 4.6 mph - N/A   Mostly Cloudy